Regional Weather Roundup
Issued by NWS

Home | Current Version | Previous Version | Graphics & Text | Print | Product List | Glossary Off
Versions: 1 2 3 4 5 6 7 8 9 10 11 12 13 14 15 16 17 18 19 20 21 22 23 24 25 26 27 28 29 30 31 32 33 34 35 36 37 38 39 40 41 42 43 44 45 46 47 48 49 50

000
ASUS43 KMKX 300311
RWRWI

WISCONSIN REGIONAL WEATHER ROUNDUP
NATIONAL WEATHER SERVICE MILWAUKEE/SULLIVAN WI
1000 PM CDT SAT AUG 29 2015

NOTE: "FAIR" INDICATES FEW OR NO CLOUDS BELOW 12,000 FEET WITH NO
SIGNIFICANT WEATHER AND/OR OBSTRUCTIONS TO VISIBILITY.

WIZ001-002-006>008-014>016-023>028-300400-
NORTHWEST WISCONSIN

CITY           SKY/WX    TMP DP  RH WIND       PRES   REMARKS
SUPERIOR ARPT  CLEAR     64  63  96 CALM      29.98S
ASHLAND        CLEAR     62  62 100 S3        30.00S
HAYWARD        PTCLDY    63  60  90 CALM      30.03R
SIREN          CLEAR     63  61  93 S3        30.01F
CUMBERLAND     CLEAR     61  59  94 S3        30.03S
RICE LAKE      CLEAR     62  59  90 SE3       30.05S
CHETEK         CLEAR    N/A N/A N/A CALM      30.04S
LADYSMITH      PTCLDY    62  60  94 CALM      30.06S
EAU CLAIRE     FAIR      61  60  97 S3        30.04R
MENOMONIE      CLEAR     61  60  96 CALM      30.04S
NEW RICHMOND   PTCLDY    63  62  97 SE3       30.03F
OSCEOLA        CLEAR     62  62 100 SE3       30.04S
$$

WIZ003>005-009-010-017-018-300400-
NORTH CENTRAL WISCONSIN

CITY           SKY/WX    TMP DP  RH WIND       PRES   REMARKS
MANITOWISH WTR CLEAR     61  61 100 CALM      30.04S
ARBOR VITAE    CLEAR     63  61  92 SW5       30.04F
WOODRUFF       CLEAR     63  61  92 SW5       30.04F
RHINELANDER    CLEAR     62  59  90 SW6       30.07S
EAGLE RIVER    CLEAR     63  58  86 CALM      30.04F
LAND O LAKES   CLEAR     60  58  92 CALM      30.05S
PHILLIPS       CLEAR     62  61  96 S3        30.04S
TOMAHAWK       FAIR      58  57  95 CALM      30.07R FOG
MEDFORD        PTCLDY    56  56 100 S5        30.07S FOG
MERRILL        PTCLDY    58  58 100 CALM      30.07S FOG
$$

WIZ029-030-035-036-043>047-300400-
CENTRAL WISCONSIN

CITY           SKY/WX    TMP DP  RH WIND       PRES   REMARKS
WAUSAU         PTCLDY    60  59  96 CALM      30.05S
MOSINEE        PTCLDY    57  57 100 CALM      30.08F
MARSHFIELD     MOCLDY    61  57  87 S5        30.07S
STEVENS POINT  CLOUDY    61  59  92 CALM      30.08S
WAUPACA        CLEAR     62  61  97 CALM      30.06F FOG
WAUTOMA        CLOUDY    65  64  96 CALM      30.07S
WISC RAPIDS    CLOUDY    64  59  83 CALM      30.08S
CAMP DOUGLAS   CLOUDY    66  66 100 SE2       30.06R
$$

WIZ011>013-019>022-031-037>040-048>050-300400-
NORTHEAST WISCONSIN

CITY           SKY/WX    TMP DP  RH WIND       PRES   REMARKS
ANTIGO         FOG       55  55 100 SW3       30.08S VSB 1/2
SHAWANO        FOG       59  58  94 CALM      30.07R VSB<1/4
OCONTO         CLEAR     57  57 100 CALM      30.05F
STURGEON BAY   CLEAR     61  57  88 S5        30.08F
GREEN BAY      CLOUDY    63  61  93 S7        30.06S
MANITOWOC      PTCLDY    57  55  94 MISG      30.07F FOG
APPLETON       CLOUDY    64  63  94 VRB5      30.05R
CLINTONVILLE   CLEAR     59  57  94 CALM      30.06S FOG
OSHKOSH        CLOUDY    65  62  90 S3        30.06S
$$

WIZ032>034-041-042-053>061-300400-
SOUTHWEST WISCONSIN

CITY           SKY/WX    TMP DP  RH WIND       PRES   REMARKS
LA CROSSE      CLOUDY    67  61  81 E5        30.05R
SPARTA         CLOUDY    65  61  87 CALM      30.07S
VIROQUA          N/A     64  62  95 SE5       30.07S
BOSCOBEL       CLOUDY    67  64  90 CALM      30.06R
PRAIRIE DU CHI CLOUDY    66  62  89 CALM      30.05S
PLATTEVILLE    CLOUDY    66  64  94 NE3       30.07S
$$

WIZ056-057-062-063-064-067-068-300400-
SOUTH CENTRAL WISCONSIN

CITY           SKY/WX    TMP DP  RH WIND       PRES   REMARKS
REEDSBURG      CLOUDY    65  63  95 CALM      30.06S
BARABOO/DELLS  CLOUDY    65  61  87 CALM      30.06F
LONE ROCK      CLOUDY    66  64  93 CALM      30.07R
MINERAL POINT  CLOUDY    66  64  94 CALM      30.07S
MADISON        CLOUDY    65  63  93 CALM      30.05F
MIDDLETON      CLOUDY    66  65  97 CALM      30.07S
WATERTOWN      CLOUDY    63  63 100 CALM      30.06S
MONROE         CLOUDY    64  63  94 CALM      30.07S
JANESVILLE     CLOUDY    64  63  94 CALM      30.05S FOG
$$

WIZ051-052-058>065-066-070>072-300400-
SOUTHEAST WISCONSIN

CITY           SKY/WX    TMP DP  RH WIND       PRES   REMARKS
MILWAUKEE      DRIZZLE   63  62  97 N6        30.05R FOG
WAUKESHA       CLOUDY    61  59  94 CALM      30.07F FOG
MILWAUKEE/TIMM CLOUDY    61  59  94 N3        30.07S FOG
RACINE         FOG       63  61  93 N8        30.06S VSB 1
BURLINGTON     CLOUDY    61  61  99 CALM      30.05F FOG
KENOSHA        FOG       63  62  97 N5        30.05R VSB 1/2
FOND DU LAC    CLOUDY    65  62  90 SE5       30.07S
SHEBOYGAN      CLOUDY    63  61  93 CALM      30.07S FOG
WEST BEND      CLOUDY    63  59  88 CALM      30.07S FOG
JUNEAU         CLOUDY    63  62  95 CALM      30.08S
$$

LSZ147-162-300400-
LAKE SUPERIOR

STATION/POSITION TIME  TEMP    WIND        PRES    WAVE
                       AIR SEA DIR/SP/G            HT/PER
                 (UTC) (F)     (DEG/KT/KT) (MB)    (FT/S)
W MID LAKE BUOY  0250   59 54  180/  6/  6 1015.0F   1
DEVILS ISLAND    0300   69     200/  8/  9 1014.7F
PORT WING        0200   67     160/  1/  3 1015.6
SAXON HARBOR     0240   65      CALM  /  5 1015.2R
$$

LMZ867-665-643>646-300400-
LAKE MICHIGAN

STATION/POSITION TIME  TEMP    WIND        PRES    WAVE
                       AIR SEA DIR/SP/G            HT/PER
                 (UTC) (F)     (DEG/KT/KT) (MB)    (FT/S)
CHAMBERS ISLAND  0200   63     160/  3/  5 1017.6R
S GREEN BAY BUOY 0300   63 62  170/  8/ 10 1019.0S
N MID LAKE BUOY  0250   63 65  200/ 10/ 12 1017.4R   1
NORTHPORT PIER   0300   62     190/  4/  7 1017.6S
SISTER BAY       0219   62     170/  6/  8   N/A
ALGOMA LAKESHORE 0214             CALM       N/A
SHEBOYGAN LAKESH 0300   61     320/  1/  1 1018.4F
PORT WASHINGTON  0200   60     340/  1/  2 1018.6R
ATWATER BUOY     0300   53 50  330/  6/  8 1019.1R
MILWAUKEE LAKESH 0200   61     350/  8/ 10   N/A
S MID LAKE BUOY  0250   67 68   30/  6/  8 1016.5R   1/ 3
KENOSHA   LAKESH 0300   62     350/  8/ 11 1017.3R
$$

TC  - TEMPERATURE IN CELSIUS
VSB - VISIBILITY IN STATUTE MILES
WCI - WIND CHILL INDEX
HX  - HEAT INDEX



USA.gov is the U.S. government's official web portal to all federal, state and local government web resources and services.